Weather History for Syracuse, NY

Change the Weather History Date:

Wednesday, December 25, 2013

  Actual Average Record
Temperature  
Mean Temperature 10 °F 26 °F  
Max Temperature 22 °F 34 °F 66 °F (1932)
Min Temperature -2 °F 19 °F -22 °F (1980)
Degree Days  
Heating Degree Days 55 39  
Month to date heating degree days 918 867  
Since 1 July heating degree days 2251 2216  
Cooling Degree Days 0 0  
Month to date cooling degree days 0 0  
Year to date cooling degree days 712 569  
Moisture  
Dew Point 6 °F    
Average Humidity 82    
Maximum Humidity 96    
Minimum Humidity 67    
Precipitation  
Precipitation T in 0.10 in 1.11 in (1978)
Month to date precipitation 2.35 2.66  
Year to date precipitation 39.88 37.91  
Snow  
Snow 0.30 in 1.10 in 15.60 in (1978)
Month to date snowfall 24.6 26.1  
Since 1 July snowfall 38.9 36.0  
Snow Depth 4.00 in    
Sea Level Pressure  
Sea Level Pressure 30.46 in    
Wind  
Wind Speed 4 mph (NNE)    
Max Wind Speed 14 mph    
Max Gust Speed 17 mph    
Visibility 9 miles    
Events Snow    
T = Trace of Precipitation, MM = Missing Value Source: NWS Daily Summary

Daily Weather History Graph

Daily Weather History Graph

Search for Another Location

Airport:

Trip Planner

Search our weather history database for the weather conditions in past years. The results will help you decide how hot, cold, wet, or windy it might be!

Date:

Astronomy

Dec. 25, 2013 Rise Set
Actual Time 7:34 AM EST 4:34 PM EST
Civil Twilight 7:02 AM EST 5:07 PM EST
Nautical Twilight 6:26 AM EST 5:43 PM EST
Astronomical Twilight 5:51 AM EST 6:17 PM EST
Moon No Moon Rise 11:45 AM EST (12/25)
Length of Visible Light 10h 05m
Length of Day
9h 00m
Waning Gibbous, 49% of the Moon is Illuminated
Dec 25
Waning Gibbous
Jan 1
New
Jan 7
First Quarter
Jan 15
Full
Jan 24
Last Quarter

Hourly Weather History & Observations

Time (EST) Temp. Windchill Dew Point Humidity Pressure Visibility Wind Dir Wind Speed Gust Speed Precip Events Conditions
12:50 AM 12.2 °F -1.8 °F 8.6 °F 85% 30.44 in 3.0 mi NW 11.5 mph - 0.01 in Snow Light Snow
12:54 AM 12.9 °F -1.6 °F 9.0 °F 84% 30.46 in 3.0 mi NW 12.7 mph - 0.01 in Snow Light Snow
1:26 AM 12.2 °F -1.0 °F 8.6 °F 85% 30.44 in 6.0 mi WNW 10.4 mph - 0.00 in Snow Light Snow
1:51 AM 10.4 °F -2.4 °F 6.8 °F 85% 30.45 in 10.0 mi NW 9.2 mph - 0.00 in   Scattered Clouds
1:54 AM 10.9 °F -1.8 °F 7.0 °F 84% 30.47 in 10.0 mi NW 9.2 mph - 0.00 in   Scattered Clouds
2:45 AM 8.6 °F 2.0 °F 5.0 °F 85% 30.48 in 9.0 mi West 3.5 mph - 0.00 in Snow Light Snow
2:54 AM 10.0 °F 3.6 °F 6.1 °F 84% 30.51 in 9.0 mi NW 3.5 mph - 0.00 in Snow Light Snow
3:20 AM 6.8 °F -2.0 °F 3.2 °F 85% 30.49 in 8.0 mi NNE 4.6 mph - 0.00 in Snow Light Snow
3:54 AM 5.0 °F - 1.9 °F 87% 30.50 in 8.0 mi Calm Calm - 0.00 in Snow Light Snow
4:15 AM 3.2 °F -4.2 °F 1.4 °F 92% 30.49 in 8.0 mi North 3.5 mph - 0.00 in   Scattered Clouds
4:54 AM 3.0 °F - 1.0 °F 91% 30.53 in 10.0 mi Calm Calm - 0.00 in   Partly Cloudy
5:54 AM 1.0 °F - -2.9 °F 83% 30.53 in 10.0 mi Calm Calm - N/A   Ice Crystals
6:54 AM 1.9 °F - -2.9 °F 80% 30.54 in 10.0 mi Calm Calm - N/A   Partly Cloudy
7:54 AM 1.0 °F - -2.0 °F 87% 30.55 in 10.0 mi Calm Calm - N/A   Partly Cloudy
8:29 AM 1.4 °F - -2.2 °F 85% 30.53 in 1.8 mi Calm Calm - N/A   Partly Cloudy
8:35 AM 1.4 °F - -2.2 °F 85% 30.54 in 1.8 mi Calm Calm - N/A   Partly Cloudy
8:38 AM 1.4 °F - -0.4 °F 92% 30.54 in 10.0 mi Calm Calm - N/A   Partly Cloudy
8:54 AM 5.0 °F - 3.0 °F 92% 30.56 in 10.0 mi Calm Calm - N/A   Scattered Clouds
9:54 AM 8.1 °F - 3.9 °F 83% 30.56 in 10.0 mi Calm Calm - N/A   Scattered Clouds
10:54 AM 12.9 °F - 8.1 °F 81% 30.55 in 10.0 mi Calm Calm - N/A   Mostly Cloudy
11:54 AM 14.0 °F 6.5 °F 7.0 °F 74% 30.51 in 10.0 mi ESE 4.6 mph - N/A   Mostly Cloudy
12:54 PM 16.0 °F - 6.1 °F 65% 30.49 in 10.0 mi Calm Calm - 0.00 in Snow Light Snow
1:54 PM 17.1 °F 8.7 °F 8.1 °F 68% 30.46 in 10.0 mi East 5.8 mph - 0.00 in   Mostly Cloudy
2:54 PM 17.1 °F 7.6 °F 8.1 °F 68% 30.44 in 10.0 mi East 6.9 mph - N/A   Overcast
3:54 PM 16.0 °F 10.4 °F 9.0 °F 74% 30.44 in 10.0 mi ENE 3.5 mph - N/A   Overcast
4:54 PM 17.1 °F 7.6 °F 8.1 °F 68% 30.42 in 10.0 mi East 6.9 mph - N/A   Overcast
5:54 PM 17.1 °F 5.0 °F 9.0 °F 71% 30.39 in 10.0 mi East 10.4 mph - N/A   Overcast
6:54 PM 18.0 °F 6.1 °F 10.0 °F 71% 30.37 in 10.0 mi East 10.4 mph - N/A   Overcast
7:54 PM 18.0 °F 7.7 °F 10.0 °F 71% 30.35 in 10.0 mi East 8.1 mph - N/A   Overcast
8:54 PM 19.0 °F 13.9 °F 10.9 °F 71% 30.33 in 10.0 mi ENE 3.5 mph - N/A   Overcast
9:54 PM 19.9 °F 12.1 °F 12.0 °F 71% 30.31 in 10.0 mi East 5.8 mph - N/A   Overcast
10:54 PM 21.9 °F 17.2 °F 14.0 °F 72% 30.29 in 10.0 mi North 3.5 mph - N/A   Overcast
11:54 PM 21.9 °F - 14.0 °F 72% 30.28 in 10.0 mi Calm Calm - N/A   Overcast